User: anonymous   Login
Location: *
(52.2090°N, 4.1550°W)
Time: 12:02:39
(UTC+00:00)
Language:

Cosmos 1500 Rocket - Orbit

View from above orbital plane
View from above orbital plane
View from above satellite
View from above satellite

Ground track
Ground track

The orbit data is extracted from the following two-line orbital elements,

1 14373U 83099B   19258.89904431 +.00000055 +00000-0 +36598-5 0  9996
2 14373 082.5427 197.5073 0021251 041.5724 017.7623 14.83766512921476
Epoch (UTC): 15 September 2019 21:34:37
Eccentricity: 0.0021251
inclination: 82.5427°
perigee height: 602 km
apogee height: 632 km
right ascension of ascending node: 197.5073°
argument of perigee: 41.5724°
revolutions per day: 14.83766512
mean anomaly at epoch: 17.7623°
orbit number at epoch: 92147

The dashed part of the orbit path shows where the satellite is in the earth's shadow,  

DLR